North Bennington, VT

2:34 PM EST on February 21, 2017 (GMT -0500)
Morse State

Weather History for KDDH - March, 2014

Change the Weather History Date:

Thursday, March 13, 2014

  Actual Average Record
Temperature  
Mean Temperature 12 °F 32 °F  
Max Temperature 18 °F 43 °F 65 °F (2012)
Min Temperature 8 °F 21 °F 6 °F (2005)
Degree Days  
Heating Degree Days 52 33  
Month to date heating degree days 454  
Since 1 July heating degree days 5705  
Cooling Degree Days 0 0  
Month to date cooling degree days 0  
Year to date cooling degree days 0  
Moisture  
Dew Point 5 °F    
Average Humidity 72    
Maximum Humidity 84    
Minimum Humidity 47    
Precipitation  
Precipitation 0.01 in 0.09 in 0.57 in (2006)
Month to date precipitation 1.18  
Year to date precipitation 6.17  
Sea Level Pressure  
Sea Level Pressure 29.48 in    
Wind  
Wind Speed 14 mph (NW)    
Max Wind Speed 22 mph    
Max Gust Speed 38 mph    
Visibility 3 miles    
Events Fog , Snow    
T = Trace of Precipitation, MM = Missing Value Source: NWS Daily Summary

Daily Weather History Graph

Daily Weather History Graph

Search for Another Location

Airport or City:

Trip Planner

Search our weather history database for the weather conditions in past years. The results will help you decide how hot, cold, wet, or windy it might be!

Date:

Astronomy

Mar. 13, 2014 Rise Set
Actual Time 7:08 AM EDT 6:56 PM EDT
Civil Twilight 6:40 AM EDT 7:25 PM EDT
Nautical Twilight 6:07 AM EDT 7:58 PM EDT
Astronomical Twilight 5:34 AM EDT 8:31 PM EDT
Moon 4:17 PM EDT (3/13) 5:17 AM EDT (3/13)
Length of Visible Light 12h 44m
Length of Day
11h 48m
Waxing Gibbous, 91% of the Moon is Illuminated
Mar 13
Waxing Gibbous
Mar 16
Full
Mar 23
Last Quarter
Mar 30
New
Apr 7
First Quarter

Hourly Weather History & Observations

Time (EDT) Temp. Windchill Dew Point Humidity Pressure Visibility Wind Dir Wind Speed Gust Speed Precip Events Conditions
12:05 AM 16.0 °F 4.4 °F 10.9 °F 81% 29.23 in 4.0 mi NNW 9.2 mph 21.9 mph 0.00 in Snow Light Snow
12:25 AM 16.0 °F 0.6 °F 10.0 °F 77% 29.23 in 1.8 mi NNW 16.1 mph 28.8 mph 0.00 in Snow Light Snow
12:54 AM 15.1 °F 1.1 °F 10.0 °F 80% 29.26 in 1.8 mi NNW 12.7 mph 25.3 mph 0.00 in Snow Light Snow
1:01 AM 16.0 °F 2.3 °F 10.9 °F 81% 29.24 in 2.0 mi NNW 12.7 mph 21.9 mph 0.00 in Snow Light Snow
1:08 AM 15.1 °F -1.1 °F 10.0 °F 80% 29.25 in 1.8 mi NNW 17.3 mph 28.8 mph 0.00 in Snow Light Snow
1:19 AM 15.1 °F -0.6 °F 9.0 °F 77% 29.25 in 2.5 mi NNW 16.1 mph 28.8 mph 0.00 in Snow Light Snow
1:31 AM 15.1 °F 0.5 °F 10.0 °F 80% 29.26 in 1.2 mi NNW 13.8 mph 20.7 mph 0.00 in Snow Light Snow
1:45 AM 15.1 °F -1.1 °F 8.1 °F 74% 29.26 in 3.0 mi NNW 17.3 mph 27.6 mph 0.00 in Snow Light Snow
1:54 AM 14.0 °F -2.0 °F 8.1 °F 77% 29.30 in 4.0 mi NNW 16.1 mph 27.6 mph 0.00 in Snow Light Snow
2:04 AM 14.0 °F -2.0 °F 8.1 °F 77% 29.27 in 4.0 mi NNW 16.1 mph 27.6 mph 0.00 in Snow Light Snow
2:32 AM 14.0 °F -2.5 °F 7.0 °F 74% 29.28 in 2.5 mi NNW 17.3 mph 32.2 mph 0.00 in Snow Light Snow
2:42 AM 12.9 °F -3.4 °F 7.0 °F 77% 29.28 in 3.0 mi NNW 16.1 mph 29.9 mph 0.00 in Snow Light Snow
2:52 AM 12.2 °F -5.3 °F 6.8 °F 79% 29.27 in 2.5 mi NNW 18.4 mph 29.9 mph 0.00 in Snow Light Snow
2:54 AM 12.9 °F -5.3 °F 6.1 °F 74% 29.30 in 3.0 mi NNW 20.7 mph 29.9 mph 0.00 in Snow Light Snow
3:16 AM 12.9 °F -2.8 °F 7.0 °F 77% 29.29 in 2.0 mi NNW 15.0 mph 24.2 mph 0.00 in Snow Light Snow
3:33 AM 12.0 °F -5.6 °F 5.0 °F 73% 29.30 in 3.0 mi NNW 18.4 mph 29.9 mph 0.00 in Snow Light Snow
3:42 AM 12.0 °F -5.1 °F 5.0 °F 73% 29.30 in 2.5 mi NNW 17.3 mph 31.1 mph 0.00 in Snow Light Snow
3:54 AM 12.0 °F -5.6 °F 5.0 °F 73% 29.34 in 2.5 mi North 18.4 mph 28.8 mph 0.00 in Snow Light Snow
4:05 AM 10.9 °F -2.6 °F 5.0 °F 77% 29.31 in 3.0 mi NNW 10.4 mph 25.3 mph 0.00 in Snow Light Snow
4:17 AM 10.9 °F -5.4 °F 3.9 °F 73% 29.31 in 2.0 mi NNW 15.0 mph 28.8 mph 0.00 in Snow Light Snow
4:49 AM 10.4 °F -3.3 °F 3.2 °F 73% 29.32 in 1.5 mi NNW 10.4 mph 27.6 mph 0.00 in Snow Light Snow
4:54 AM 10.0 °F -7.6 °F 3.9 °F 76% 29.35 in 1.5 mi NNW 17.3 mph 28.8 mph 0.00 in Snow Light Snow
5:33 AM 10.0 °F -5.2 °F 3.0 °F 73% 29.35 in 2.0 mi NNW 12.7 mph 26.5 mph 0.00 in Snow Light Snow
5:54 AM 10.0 °F -9.5 °F 1.9 °F 70% 29.41 in 2.5 mi NNW 21.9 mph 32.2 mph 0.00 in Snow Light Snow
6:10 AM 10.0 °F -6.5 °F 3.0 °F 73% 29.38 in 3.0 mi NNW 15.0 mph 21.9 mph 0.00 in Snow Light Snow
6:32 AM 9.0 °F -9.5 °F 1.9 °F 73% 29.40 in 2.5 mi North 18.4 mph 38.0 mph 0.00 in Snow Light Snow
6:39 AM 9.0 °F -9.0 °F 1.0 °F 70% 29.40 in 2.5 mi North 17.3 mph 27.6 mph 0.00 in Snow Light Snow
6:54 AM 9.0 °F -5.9 °F 1.9 °F 73% 29.45 in 1.8 mi NNW 11.5 mph 23.0 mph 0.00 in Snow Light Snow
7:18 AM 9.0 °F -11.0 °F 1.9 °F 73% 29.43 in 1.0 mi North 21.9 mph 31.1 mph 0.00 in Snow Light Snow
7:27 AM 9.0 °F -7.9 °F 1.9 °F 73% 29.42 in 1.2 mi NNW 15.0 mph 36.8 mph 0.00 in Snow Light Snow
7:54 AM 9.0 °F -7.9 °F 1.9 °F 73% 29.47 in 1.8 mi NNW 15.0 mph 31.1 mph 0.00 in Snow Light Snow
8:19 AM 9.0 °F -7.3 °F 1.9 °F 73% 29.44 in 2.0 mi NNW 13.8 mph 24.2 mph 0.00 in Snow Light Snow
8:39 AM 9.0 °F -9.0 °F 1.9 °F 73% 29.46 in 1.8 mi NNW 17.3 mph 28.8 mph 0.00 in Snow Light Snow
8:54 AM 9.0 °F -7.9 °F 3.0 °F 77% 29.51 in 1.2 mi NNW 15.0 mph 21.9 mph 0.00 in Snow Light Snow
9:16 AM 9.0 °F -6.6 °F 3.9 °F 80% 29.47 in 1.0 mi NNW 12.7 mph - 0.00 in Snow Light Snow
9:35 AM 9.0 °F -5.1 °F 5.0 °F 84% 29.49 in 0.5 mi NW 10.4 mph - 0.00 in Fog , Snow Snow
9:42 AM 9.0 °F -5.9 °F 3.9 °F 80% 29.49 in 0.5 mi NW 11.5 mph 18.4 mph 0.00 in Snow Snow
9:49 AM 8.6 °F -4.7 °F 3.2 °F 79% 29.49 in 1.0 mi NW 9.2 mph 18.4 mph 0.00 in Snow Light Snow
9:54 AM 9.0 °F -3.2 °F 3.9 °F 80% 29.53 in 0.8 mi NNW 8.1 mph 17.3 mph 0.00 in Snow Light Snow
10:36 AM 10.0 °F -4.5 °F 3.9 °F 76% 29.51 in 0.8 mi NW 11.5 mph 19.6 mph 0.00 in Snow Light Snow
10:54 AM 10.9 °F -0.8 °F 3.9 °F 73% 29.57 in 0.8 mi NW 8.1 mph 20.7 mph 0.00 in Snow Light Snow
11:16 AM 10.9 °F -4.7 °F 5.0 °F 77% 29.53 in 1.2 mi NW 13.8 mph 20.7 mph 0.00 in Snow Light Snow
11:54 AM 12.0 °F -2.0 °F 3.9 °F 70% 29.59 in 1.2 mi NW 11.5 mph 26.5 mph 0.00 in Snow Light Snow
12:06 PM 10.9 °F -3.4 °F 5.0 °F 77% 29.55 in 0.8 mi NNW 11.5 mph 20.7 mph 0.00 in Snow Light Snow
12:35 PM 12.9 °F -0.2 °F 5.0 °F 71% 29.56 in 1.5 mi NNW 10.4 mph - 0.00 in Snow Light Snow
12:40 PM 14.0 °F -0.8 °F 5.0 °F 67% 29.56 in 3.0 mi NNW 13.8 mph 21.9 mph 0.00 in Snow Light Snow
12:54 PM 14.0 °F -0.2 °F 3.9 °F 64% 29.61 in 3.0 mi NW 12.7 mph 25.3 mph 0.00 in   Haze
1:10 PM 14.0 °F 0.5 °F 5.0 °F 67% 29.57 in 1.8 mi NW 11.5 mph 19.6 mph 0.00 in Snow Light Snow
1:32 PM 14.0 °F 1.2 °F 6.1 °F 71% 29.57 in 3.0 mi NNW 10.4 mph 18.4 mph 0.00 in Snow Light Snow
1:54 PM 15.1 °F 3.3 °F 5.0 °F 64% 29.62 in 8.0 mi NNW 9.2 mph 23.0 mph 0.00 in   Overcast
2:39 PM 15.1 °F 1.8 °F 8.1 °F 74% 29.59 in 1.5 mi West 11.5 mph 18.4 mph 0.00 in Snow Light Snow
2:42 PM 14.0 °F 0.5 °F 8.1 °F 77% 29.59 in 0.8 mi West 11.5 mph 18.4 mph 0.00 in Snow Light Snow
2:54 PM 14.0 °F 2.0 °F 9.0 °F 80% 29.64 in 0.5 mi West 9.2 mph 19.6 mph 0.00 in Snow Snow
3:12 PM 15.1 °F 0.5 °F 9.0 °F 77% 29.60 in 1.0 mi West 13.8 mph 19.6 mph 0.01 in Snow Light Snow
3:25 PM 16.0 °F 4.4 °F 8.1 °F 71% 29.61 in 3.0 mi NW 9.2 mph 18.4 mph 0.01 in Snow Light Snow
3:41 PM 16.0 °F 1.7 °F 3.9 °F 59% 29.63 in 7.0 mi NNW 13.8 mph 25.3 mph 0.01 in   Overcast
3:54 PM 16.0 °F 2.3 °F 3.9 °F 59% 29.68 in 10.0 mi NNW 12.7 mph 24.2 mph 0.01 in   Overcast
4:54 PM 17.1 °F 6.6 °F 3.9 °F 56% 29.72 in 10.0 mi NW 8.1 mph 19.6 mph N/A   Mostly Cloudy
5:54 PM 17.1 °F 5.0 °F -0.0 °F 47% 29.76 in 10.0 mi NW 10.4 mph - N/A   Partly Cloudy
6:54 PM 15.1 °F -0.6 °F -0.9 °F 49% 29.82 in 10.0 mi WNW 16.1 mph 21.9 mph N/A   Scattered Clouds
7:54 PM 12.9 °F 0.7 °F -0.9 °F 54% 29.88 in 10.0 mi West 9.2 mph - N/A   Clear
8:54 PM 12.0 °F 1.5 °F -2.9 °F 51% 29.94 in 10.0 mi West 6.9 mph - N/A   Clear
9:54 PM 10.9 °F -0.8 °F -2.0 °F 56% 29.98 in 10.0 mi SW 8.1 mph - N/A   Clear
10:54 PM 10.0 °F -3.7 °F 1.0 °F 67% 30.00 in 10.0 mi SW 10.4 mph - N/A   Clear
11:54 PM 10.0 °F - -0.0 °F 64% 30.02 in 10.0 mi Calm Calm - N/A   Clear